Tracking 32932 objects as of 14-Jan-2026
HD Live streaming from Space Station
objects crossing your sky now

STARLINK-4047

Track STARLINK-4047 now!
10-day predictions
STARLINK-4047 is classified as:


NORAD ID: 53243
Int'l Code: 2022-086B
Perigee: 546.0 km
Apogee: 547.7 km
Inclination: 53.2 °
Period: 95.4 minutes
Semi major axis: 6917 km
RCS: Unknown
Launch date: July 24, 2022
Source: United States (US)
Launch site: AIR FORCE EASTERN TEST RANGE (AFETR)
Your satellite tracking list
Your tracking list is empty




NASA's NSSDC Master Catalog

Two Line Element Set (TLE):
1 53243U 22086B   26014.49117309  .00000552  00000-0  52742-4 0  9998
2 53243  53.2177  87.1178 0001229  89.4895 270.6238 15.08835963193080
Source of the keplerian elements: AFSPC